Regional Weather Roundup
Issued by NWS

Home | Current Version | Previous Version | Text Only | Print | Product List | Glossary On
Versions: 1 2 3 4 5 6 7 8 9 10 11 12 13 14 15 16 17 18 19 20 21 22 23 24 25 26 27 28 29 30 31 32 33 34 35 36 37 38 39 40 41 42 43 44 45 46 47 48 49 50
000
ASUS43 KLSX 261810
RWRMO

WEATHER SUMMARY FOR MISSOURI
NATIONAL WEATHER SERVICE SPRINGFIELD MO
100 PM CDT SUN MAR 26 2017

NOTE: "FAIR" INDICATES FEW OR NO CLOUDS BELOW 12,000 FEET WITH NO
       SIGNIFICANT WEATHER AND/OR OBSTRUCTIONS TO VISIBILITY.
       CURRENT SKY AND/OR WEATHER CONDITIONS ARE NOT AVAILABLE FOR
       CHILLICOTHE AND FARMINGTON.

MOZ001>031-035>038-043-044-053-054-261900-
...NORTHERN AND WESTERN MISSOURI...

CITY           SKY/WX    TMP DP  RH WIND       PRES   REMARKS
KANSAS CTY INT CLOUDY    49  43  80 W9        29.93S
6HR MIN TEMP:  43; 6HR MAX TEMP:  49;

KANSAS C DTWN  CLOUDY    51  43  74 SW8       29.93S
6HR MIN TEMP:  45; 6HR MAX TEMP:  51;

LEE`S SUMMIT   CLOUDY    52  44  74 W8        29.93F
6HR MIN TEMP:  44; 6HR MAX TEMP:  52;

ST JOSEPH      CLOUDY    48  43  82 NW7       29.93S
6HR MIN TEMP:  43; 6HR MAX TEMP:  48;

CHILLICOTHE      N/A     48  42  80 VRB7      29.93F
6HR MIN TEMP:  43; 6HR MAX TEMP:  48;

KIRKSVILLE     CLOUDY    47  45  93 SW12      29.90R
6HR MIN TEMP:  44; 6HR MAX TEMP:  48;


$$
MOZ066>068-077>081-088>096-101>105-261900-
...SOUTHWEST MISSOURI...

CITY           SKY/WX    TMP DP  RH WIND       PRES   REMARKS
SPRINGFIELD    MOSUNNY   60  49  66 W8        29.93F
6HR MIN TEMP:  46; 6HR MAX TEMP:  60;

JOPLIN         SUNNY     62  49  62 S5        29.93F
6HR MIN TEMP:  43; 6HR MAX TEMP:  62;

BRANSON        PTSUNNY   63  48  59 SW9       29.96F

$$
MOZ032>034-039>042-045>050-055>058-069>072-261900-
...CENTRAL MISSOURI...

CITY           SKY/WX    TMP DP  RH WIND       PRES   REMARKS
COLUMBIA       CLOUDY    53  50  89 W9        29.92S
6HR MIN TEMP:  48; 6HR MAX TEMP:  53;

JEFFERSON CITY CLOUDY    58  49  72 NW12      29.92S
6HR MIN TEMP:  51; 6HR MAX TEMP:  58; 6HR PCP: TRACE;

ROLLA          PTSUNNY   58  50  75 W7        29.90S
6HR MIN TEMP:  47; 6HR MAX TEMP:  58;

SEDALIA        CLOUDY    54  48  80 W9        29.94S
6HR MIN TEMP:  48; 6HR MAX TEMP:  54;

WHITEMAN AFB   CLOUDY    53  51  94 W8        29.92F
WARRENSBURG    CLOUDY    52  45  76 W6        29.93F
OSAGE BEACH    CLOUDY   N/A N/A N/A W10       29.94R

$$
MOZ051-052-059>065-261900-
...EAST CENTRAL MISSOURI...

CITY           SKY/WX    TMP DP  RH WIND       PRES   REMARKS
ST LOUIS INTL  CLOUDY    59  49  69 W7        29.90F
6HR MIN TEMP:  53; 6HR MAX TEMP:  59;

SPIRIT OF STL  CLOUDY    58  51  78 SW7       29.89F
6HR MIN TEMP:  51; 6HR MAX TEMP:  58; 6HR PCP: TRACE;

ST CHARLES     CLOUDY    56  50  80 SW8       29.89F
6HR MIN TEMP:  51; 6HR MAX TEMP:  56;


$$
MOZ072>076-082>087-097>100-106>115-261900-
...SOUTH CENTRAL AND SOUTHEAST MISSOURI...

CITY           SKY/WX    TMP DP  RH WIND       PRES   REMARKS
CAPE GIRARDEAU CLOUDY    59  47  64 SW9       29.96S
6HR MIN TEMP:  52; 6HR MAX TEMP:  59;

FARMINGTON     PTSUNNY   58  49  72 S8        29.92F
6HR MIN TEMP:  49; 6HR MAX TEMP:  58;

POPLAR BLUFF   CLOUDY    59  47  64 SW10      29.96F
6HR MIN TEMP:  52; 6HR MAX TEMP:  59;

WEST PLAINS    PTSUNNY   58  48  69 VRB7      29.96S
6HR MIN TEMP:  48; 6HR MAX TEMP:  58;


$$



USA.gov is the U.S. government's official web portal to all federal, state and local government web resources and services.